Orbital Elements at Epoch 2459000.5 (2020-May-31.0) TDB
Reference: JPL 21 (heliocentric ecliptic J2000)
Element | Value | Uncertainty (1-sigma) | Units |
e | .2038304865003541 | 3.6941e-08 | |
a | 2.42621224156382 | 7.3625e-09 | au |
q | 1.931676220012752 | 9.218e-08 | au |
i | 2.335008215822425 | 3.8554e-06 | deg |
node | 100.1040117475186 | 9.2402e-05 | deg |
peri | 271.0368337678738 | 9.2986e-05 | deg |
M | 303.5070827703322 | 9.9899e-06 | deg |
tp | 2459217.112299313072 (2021-Jan-02.61229931) | 3.8616e-05 | TDB |
period | 1380.357601921709 3.78 | 6.2832e-06 1.72e-08 | d yr |
n | .2608019831229346 | 1.1871e-09 | deg/d |
Q | 2.920748263114888 | 8.8632e-09 | au |
|
| | Orbit Determination Parameters
Additional Information
|